SPACEBEE-25 (46951 NORAD) Tracking and Keplerian Element Data
This shows tracking and keplerian element data for the satellite.
Feedback or suggestion? Click here.
Element | Value |
Catalog | 46951 |
Name | SPACEBEE-25 |
Epoch Orbit | 893 |
Epoch Day | 17.88919025 |
Epoch Year | 2021 |
RAAN | 157.2491 |
Inclination | 97.3739 |
Eccentricity | 0.0016538 |
Argument of Perigee | 105.7 |
Mean Anonmoly | 254.6061 |
Mean Motion | 15.20984116 |
Decay Rate | 4.172E-05 |
L1 | 1 46951U 20085Y 21017.88919025 .00004172 00000-0 19070-3 0 9997 |
L2 | 2 46951 97.3739 157.2491 0016538 105.7000 254.6061 15.20984116 8931 |
Live tracking and technical data element details for SPACEBEE-25 (NORAD 46951). SPACEBEE-25 can be tracked NOW for your location showing map with azimuth and elevation plus other details from your city location.
Track the satellite on the map from your city or location and see movement details for azimuth, elevation, latitude, longitude, range, height, and movement on the map or in text.
IsCatalogInMostPopularTable: catalog: 46951, numindb: 20
Update: records affected: 1
GetName: 46951 SPACEBEE-25
Hit Count: updated at: Tue, 19 Jan 2021 01:15:16 GMT